Location: *
(42.0175°N, 9.4056°E)
Time: 13:53:48
(UTC+00:00)

CZ-2C R/B - Pass Details

Date: 25 August 2019
Orbit: 785 x 870 km, 98.3° (Epoch: 23 October)

Event Time Altitude Azimuth Distance (km) Brightness Sun altitude
Rises 19:35:32 0° 24° (NNE) 3,335 5.9 -15.8°
Reaches altitude 10° 19:38:09 10° 35° (NE) 2,412 5.0 -16.2°
Maximum altitude 19:42:48 30° 95° (E) 1,454 3.4 -16.9°
Enters shadow 19:43:46 28° 114° (ESE) 1,511 3.4 -17.1°
